Regional Weather Roundup
Issued by NWS Raleigh/Durham, NC

Home | Current Version | Previous Version | Text Only | Print | Product List | Glossary On
Versions: 1 2 3 4 5 6 7 8 9 10 11 12 13 14 15 16 17 18 19 20 21 22 23 24 25 26 27 28 29 30 31 32 33 34 35 36 37 38 39 40 41 42 43 44 45 46 47 48 49 50
000
ASUS42 KRAH 300810
RWRRAH
NORTH CAROLINA WEATHER ROUNDUP
NATIONAL WEATHER SERVICE RALEIGH NC
400 AM EDT MON MAY 30 2016

NOTE: "FAIR" INDICATES FEW OR NO CLOUDS BELOW 12,000 FEET WITH NO
SIGNIFICANT WEATHER AND/OR OBSTRUCTIONS TO VISIBILITY.

NCZ001-053-055-056-065-067-300900-
WESTERN NORTH CAROLINA

CITY           SKY/WX    TMP DP  RH WIND       PRES   REMARKS
ASHEVILLE      CLEAR     58  55  90 CALM      30.08F
JEFFERSON      CLEAR     56  53  90 CALM      30.12F
MORGANTON      CLOUDY    59  59 100 CALM      30.09S
HICKORY        CLOUDY    64  60  87 CALM      30.03F
RUTHERFORDTON  CLEAR     62  62  99 NE3       30.05S
MOUNT AIRY     HVY RAIN  64  63  94 N5        30.07F
BOONE          CLEAR     49  49 100 CALM      30.13S FOG
$$

NCZ021-022-025-041-071-084-088-300900-
CENTRAL NORTH CAROLINA

CITY           SKY/WX    TMP DP  RH WIND       PRES   REMARKS
CHARLOTTE      CLOUDY    67  59  75 N8        30.00F
GREENSBORO     CLOUDY    64  61  90 NE5       30.02S
WINSTON-SALEM  CLOUDY    64  60  87 N8        30.04F
RALEIGH-DURHAM FOG       66  65  96 NE6       30.00S VSB 1/2
FORT BRAGG     CLOUDY    68  68 100 NE3       29.96S FOG
FAYETTEVILLE   CLOUDY    71  69  93 N8        29.96F FOG
BURLINGTON     CLOUDY    64  61  90 N7        30.01F
LAURINBURG     MOCLDY    69  67  93 NE8       29.95F
$$

NCZ011-015-027-028-043-044-047-080-103-300900-
NORTHEASTERN NORTH CAROLINA

CITY           SKY/WX    TMP DP  RH WIND       PRES   REMARKS
ROCKY MT-WILSO CLOUDY    71  70  96 CALM      29.99S
GREENVILLE     CLOUDY    70  70 100 CALM      30.01F FOG
WASHINGTON     CLOUDY    73  72  96 SE3       29.99S
ELIZABETH CITY RAIN      73  71  93 SE5       30.01F FOG
MANTEO         NOT AVBL
CAPE HATTERAS  LGT RAIN  74  72  93 SE10      30.02S
$$

NCZ078-087-090-091-093-098-101-300900-
SOUTHEASTERN NORTH CAROLINA

CITY           SKY/WX    TMP DP  RH WIND       PRES   REMARKS
LUMBERTON      CLOUDY    73  70  90 NE6       29.94F
GOLDSBORO      NOT AVBL
KINSTON        PTCLDY    71  70  97 CALM      29.99S
KENANSVILLE    CLOUDY    70  70  99 CALM      29.98S FOG
NEW BERN       CLOUDY    73  70  90 SE3       29.99F
CHERRY POINT   CLOUDY    73  70  90 S5        29.99F
BEAUFORT       CLOUDY    75  70  84 S6        29.98F
JACKSONVILLE   CLOUDY    75  72  90 SE6       29.96F
WILMINGTON     CLOUDY    72  71  97 NE3       29.95F
$$




USA.gov is the U.S. government's official web portal to all federal, state and local government web resources and services.